Location: Drocourt
(49.0571°N, 1.7669°E)
Time: 13:49:44
(UTC+00:00)

SR - Pass Details

Date: 20 April 2024
Orbit: 579 x 859 km, 66.7° (Epoch: 28 May)

Event Time Altitude Azimuth Distance (km) Brightness Sun altitude
Rises 08:22:44 0° 327° (NNW) 3,061 ? 33.1°
Reaches altitude 10° 08:25:39 10° 343° (NNW) 2,088 ? 33.6°
Maximum altitude 08:29:15 21° 33° (NNE) 1,421 ? 34.1°
Drops below altitude 10° 08:32:39 10° 84° (E) 1,970 ? 34.6°
Sets 08:35:18 0° 101° (E) 2,839 ? 35.0°
